Location: Rosenheim
(47.8408°N, 12.2113°E)
Time: 23:00:04
(UTC+02:00)

ISS - Visible Passes

Search period start: 25 September 2020 00:00
Search period end: 05 October 2020 00:00
Orbit: 419 x 420 km, 51.6° (Epoch: 26 September)

Date Brightness Start Highest point End Pass type
(mag) Time Alt. Az. Time Alt. Az. Time Alt. Az.
25 Sep -2.9 20:58:39 10° WNW 21:01:53 41° N 21:02:08 40° NNE visible
26 Sep -2.8 20:11:09 10° WNW 20:14:24 42° N 20:16:31 18° ENE visible
26 Sep -1.1 21:48:12 10° WNW 21:49:28 21° WNW 21:49:28 21° WNW visible
27 Sep -2.9 19:23:38 10° W 19:26:54 45° N 19:30:11 10° ENE visible
27 Sep -3.1 21:00:47 10° WNW 21:03:50 48° N 21:03:50 48° N visible
28 Sep -3.0 20:13:20 10° WNW 20:16:36 44° N 20:18:11 25° ENE visible
28 Sep -0.8 21:50:13 10° WNW 21:51:09 17° WNW 21:51:09 17° WNW visible
29 Sep -2.9 19:25:50 10° WNW 19:29:05 41° N 19:32:19 10° ENE visible
29 Sep -3.1 21:02:47 10° WNW 21:05:30 54° NW 21:05:30 54° NW visible
30 Sep -3.6 20:15:21 10° WNW 20:18:42 61° NNE 20:19:53 35° E visible
30 Sep -0.6 21:52:19 10° WNW 21:52:51 13° W 21:52:51 13° W visible
01 Oct -3.2 19:27:53 10° WNW 19:31:12 50° NNE 19:34:17 11° E visible
01 Oct -2.5 21:04:46 10° WNW 21:07:15 39° WSW 21:07:15 39° WSW visible
02 Oct -3.7 20:17:16 10° WNW 20:20:39 75° SSW 20:21:42 41° SE visible
03 Oct -3.8 19:29:48 10° WNW 19:33:12 80° NNE 19:36:12 13° ESE visible
03 Oct -1.6 21:07:01 10° W 21:09:10 21° SW 21:09:10 21° SW visible
04 Oct -2.4 20:19:18 10° WNW 20:22:23 33° SW 20:23:45 24° S visible
